Hourly Weather Ali Sabieh

Today, 7 March, Sunday

Time Temperature Precipitation Wind Pressure Humidity
00:00 +21°C° 0 mm 3 mps 699 mmHg 54%
01:00 +20°C° 0 mm 3 mps 698 mmHg 57%
02:00 +20°C° 0 mm 3 mps 697 mmHg 60%
03:00 +19°C° 0 mm 3 mps 697 mmHg 64%
04:00 +19°C° 0 mm 3 mps 697 mmHg 70%
05:00 +18°C° 0 mm 3 mps 697 mmHg 76%
06:00 +18°C° 0 mm 3 mps 697 mmHg 82%
07:00 +20°C° 0 mm 4 mps 698 mmHg 68%
08:00 +22°C° 0 mm 5 mps 699 mmHg 55%
09:00 +24°C° 0 mm 6 mps 699 mmHg 41%
10:00 +27°C° 0 mm 7 mps 699 mmHg 35%
11:00 +29°C° 0 mm 7 mps 699 mmHg 30%
12:00 +31°C° 0 mm 8 mps 699 mmHg 24%
13:00 +32°C° 0 mm 9 mps 699 mmHg 21%
14:00 +32°C° 0 mm 9 mps 698 mmHg 19%
15:00 +33°C° 0 mm 9 mps 698 mmHg 16%
16:00 +31°C° 0 mm 9 mps 698 mmHg 17%
17:00 +29°C° 0 mm 9 mps 698 mmHg 19%
18:00 +28°C° 0 mm 9 mps 698 mmHg 20%
19:00 +26°C° 0 mm 7 mps 698 mmHg 25%
20:00 +24°C° 0 mm 6 mps 698 mmHg 30%
21:00 +23°C° 0 mm 5 mps 698 mmHg 35%
22:00 +22°C° 0 mm 5 mps 698 mmHg 39%
23:00 +22°C° 0 mm 4 mps 698 mmHg 43%

Tomorrow, 8 March, Monday

Time Temperature Precipitation Wind Pressure Humidity
00:00 +21°C° 0 mm 4 mps 697 mmHg 46%
01:00 +20°C° 0 mm 4 mps 697 mmHg 51%
02:00 +20°C° 0 mm 4 mps 696 mmHg 55%
03:00 +19°C° 0 mm 4 mps 695 mmHg 59%
04:00 +19°C° 0 mm 4 mps 696 mmHg 64%
05:00 +18°C° 0 mm 4 mps 696 mmHg 69%
06:00 +18°C° 0 mm 4 mps 696 mmHg 73%
07:00 +20°C° 0 mm 5 mps 697 mmHg 63%
08:00 +22°C° 0 mm 6 mps 698 mmHg 53%
09:00 +24°C° 0 mm 7 mps 698 mmHg 43%
10:00 +27°C° 0 mm 7 mps 698 mmHg 37%
11:00 +28°C° 0 mm 7 mps 698 mmHg 32%
12:00 +31°C° 0 mm 8 mps 698 mmHg 26%
13:00 +32°C° 0 mm 8 mps 698 mmHg 24%
14:00 +32°C° 0 mm 8 mps 697 mmHg 23%
15:00 +33°C° 0 mm 9 mps 696 mmHg 21%
16:00 +31°C° 0 mm 9 mps 696 mmHg 27%
17:00 +28°C° 0 mm 9 mps 696 mmHg 33%
18:00 +26°C° 0 mm 8 mps 696 mmHg 38%
19:00 +24°C° 0 mm 8 mps 696 mmHg 49%
20:00 +23°C° 0 mm 7 mps 697 mmHg 61%
21:00 +21°C° 0 mm 7 mps 697 mmHg 72%
22:00 +21°C° 0 mm 7 mps 697 mmHg 77%
23:00 +20°C° 0 mm 7 mps 697 mmHg 82%

Day after tomorrow, 9 March, Tuesday

Time Temperature Precipitation Wind Pressure Humidity
00:00 +20°C° 0 mm 7 mps 697 mmHg 87%
01:00 +20°C° 0 mm 7 mps 696 mmHg 88%
02:00 +18°C° 0 mm 7 mps 696 mmHg 89%
03:00 +19°C° 0 mm 6 mps 695 mmHg 90%
04:00 +19°C° 0 mm 6 mps 696 mmHg 91%
05:00 +19°C° 0 mm 5 mps 696 mmHg 92%
06:00 +17°C° 0 mm 5 mps 696 mmHg 94%
07:00 +20°C° 0 mm 6 mps 697 mmHg 83%
08:00 +21°C° 0 mm 7 mps 698 mmHg 73%
09:00 +23°C° 0 mm 8 mps 699 mmHg 63%
10:00 +26°C° 0 mm 8 mps 699 mmHg 52%
11:00 +28°C° 0 mm 8 mps 699 mmHg 42%
12:00 +31°C° 0 mm 8 mps 699 mmHg 31%
13:00 +32°C° 0 mm 7 mps 698 mmHg 32%
14:00 +32°C° 0 mm 7 mps 697 mmHg 33%
15:00 +32°C° 0 mm 7 mps 696 mmHg 34%
16:00 +30°C° 0 mm 7 mps 696 mmHg 43%
17:00 +28°C° 0 mm 7 mps 696 mmHg 52%
18:00 +26°C° 0 mm 7 mps 696 mmHg 60%
19:00 +24°C° 0 mm 7 mps 697 mmHg 68%
20:00 +23°C° 0 mm 6 mps 697 mmHg 76%
21:00 +21°C° 0 mm 6 mps 697 mmHg 84%
22:00 +21°C° 0 mm 6 mps 697 mmHg 84%
23:00 +21°C° 0 mm 7 mps 697 mmHg 84%

10 March, Wednesday

Time Temperature Precipitation Wind Pressure Humidity
00:00 +21°C° 0 mm 7 mps 697 mmHg 84%
01:00 +21°C° 0 mm 7 mps 697 mmHg 84%
02:00 +21°C° 0 mm 7 mps 696 mmHg 84%
03:00 +21°C° 0 mm 7 mps 696 mmHg 85%
04:00 +21°C° 0 mm 6 mps 696 mmHg 87%
05:00 +20°C° 0 mm 6 mps 697 mmHg 90%
06:00 +20°C° 0 mm 6 mps 697 mmHg 93%
07:00 +21°C° 0 mm 6 mps 698 mmHg 83%
08:00 +23°C° 0 mm 7 mps 698 mmHg 74%
09:00 +24°C° 0 mm 7 mps 699 mmHg 65%
10:00 +27°C° 0 mm 8 mps 699 mmHg 55%
11:00 +29°C° 0 mm 8 mps 699 mmHg 46%
12:00 +32°C° 0 mm 8 mps 699 mmHg 37%
13:00 +32°C° 0 mm 8 mps 698 mmHg 38%
14:00 +32°C° 0 mm 8 mps 697 mmHg 39%
15:00 +32°C° 0 mm 8 mps 696 mmHg 40%
16:00 +31°C° 0 mm 8 mps 696 mmHg 46%
17:00 +28°C° 0 mm 7 mps 696 mmHg 52%
18:00 +26°C° 0 mm 7 mps 696 mmHg 58%
19:00 +24°C° 0 mm 7 mps 696 mmHg 66%
20:00 +23°C° 0 mm 6 mps 697 mmHg 73%
21:00 +22°C° 0 mm 6 mps 697 mmHg 80%
22:00 +22°C° 0 mm 6 mps 697 mmHg 83%
23:00 +21°C° 0 mm 5 mps 697 mmHg 86%

11 March, Thursday

Time Temperature Precipitation Wind Pressure Humidity
00:00 +21°C° 0 mm 5 mps 697 mmHg 88%
01:00 +21°C° 0 mm 5 mps 696 mmHg 87%
02:00 +21°C° 0 mm 5 mps 696 mmHg 87%
03:00 +21°C° 0 mm 5 mps 695 mmHg 86%
04:00 +21°C° 0 mm 5 mps 695 mmHg 87%
05:00 +21°C° 0 mm 5 mps 696 mmHg 88%
06:00 +21°C° 0 mm 5 mps 696 mmHg 88%
07:00 +22°C° 0 mm 6 mps 697 mmHg 81%
08:00 +23°C° 0 mm 6 mps 697 mmHg 73%
09:00 +24°C° 0 mm 7 mps 698 mmHg 66%
10:00 +27°C° 0 mm 7 mps 698 mmHg 57%
11:00 +29°C° 0 mm 7 mps 698 mmHg 48%
12:00 +33°C° 0 mm 7 mps 697 mmHg 39%
13:00 +33°C° 0 mm 7 mps 697 mmHg 40%
14:00 +33°C° 0 mm 7 mps 696 mmHg 41%
15:00 +33°C° 0 mm 7 mps 695 mmHg 42%
16:00 +30°C° 0 mm 7 mps 695 mmHg 50%
17:00 +28°C° 0 mm 8 mps 695 mmHg 57%
18:00 +26°C° 0 mm 8 mps 695 mmHg 65%
19:00 +24°C° 0 mm 7 mps 695 mmHg 71%
20:00 +23°C° 0 mm 7 mps 696 mmHg 77%
21:00 +22°C° 0 mm 6 mps 696 mmHg 84%
22:00 +22°C° 0 mm 6 mps 696 mmHg 84%
23:00 +22°C° 0 mm 6 mps 696 mmHg 85%

12 March, Friday

Time Temperature Precipitation Wind Pressure Humidity
00:00 +22°C° 0 mm 6 mps 696 mmHg 85%
01:00 +22°C° 0 mm 6 mps 695 mmHg 86%
02:00 +21°C° 0 mm 6 mps 695 mmHg 87%
03:00 +21°C° 0 mm 5 mps 695 mmHg 88%
04:00 +21°C° 0 mm 6 mps 695 mmHg 89%
05:00 +21°C° 0 mm 6 mps 695 mmHg 90%
06:00 +21°C° 0 mm 6 mps 695 mmHg 91%
07:00 +22°C° 0 mm 6 mps 696 mmHg 81%
08:00 +24°C° 0 mm 6 mps 697 mmHg 70%
09:00 +26°C° 0 mm 6 mps 698 mmHg 60%
10:00 +28°C° 0 mm 6 mps 698 mmHg 54%
11:00 +30°C° 0 mm 6 mps 697 mmHg 48%
12:00 +33°C° 0 mm 6 mps 697 mmHg 42%
13:00 +33°C° 0 mm 6 mps 696 mmHg 43%
14:00 +33°C° 0 mm 6 mps 696 mmHg 44%
15:00 +33°C° 0 mm 6 mps 695 mmHg 45%
16:00 +32°C° 0 mm 6 mps 695 mmHg 53%
17:00 +29°C° 0 mm 6 mps 695 mmHg 61%
18:00 +27°C° 0 mm 6 mps 694 mmHg 68%
19:00 +26°C° 0 mm 5 mps 695 mmHg 73%
20:00 +25°C° 0 mm 4 mps 695 mmHg 78%
21:00 +24°C° 0 mm 3 mps 695 mmHg 83%
22:00 +23°C° 0 mm 4 mps 695 mmHg 85%
23:00 +23°C° 0 mm 4 mps 695 mmHg 86%
Show more